Theta_e
310 314 314 314 313 309 313 311 312 310 311 313 313 314 314 313 311 313 312 311 310 311 311 311 312 313 313 314 316 318 321 324 328 329 331 332 331 330 330 330 330 330 330 330
312 313 313 310 308 310 311 311 312 312 310 312 312 314 314 309 309 308 308 308 308 309 310 310 310 311 312 312 313 314 318 320 323 325 327 328 329 329 330 330 329 330 331 331
312 310 309 310 309 311 311 312 312 313 309 309 309 313 310 308 309 309 309 308 309 309 310 311 311 312 312 311 311 312 313 314 316 320 323 324 326 326 326 327 327 326 329 330
311 307 309 310 311 312 312 310 311 311 313 313 309 312 311 309 311 311 311 311 310 310 311 312 312 313 313 312 311 311 311 312 312 312 315 318 320 322 324 327 327 328 328 328
311 308 309 311 311 310 311 310 311 311 313 313 312 312 312 309 313 312 311 310 310 310 310 311 312 312 312 313 313 313 313 312 312 311 312 313 315 322 322 325 325 325 325 325
310 307 309 310 307 309 308 310 310 311 312 312 312 312 311 310 313 312 310 309 309 309 310 311 312 312 312 313 313 313 313 313 313 313 313 313 314 315 317 318 321 323 324 325
311 310 309 309 310 309 309 313 312 313 313 312 306 309 311 308 311 312 311 310 309 309 311 312 312 313 313 313 313 313 313 313 313 313 313 313 313 313 314 314 315 316 317 317
312 312 311 310 312 312 311 312 314 315 312 311 306 311 311 307 307 310 310 309 309 309 311 311 312 312 312 312 313 313 313 313 312 312 312 312 312 312 312 312 311 312 312 312
311 310 309 308 308 311 310 310 309 309 302 313 311 310 308 307 309 309 309 309 309 309 310 311 311 311 311 312 312 312 312 312 312 312 312 312 312 312 312 312 312 312 312 311
310 311 309 308 308 308 309 309 311 310 316 315 309 310 313 310 311 311 309 310 309 309 310 310 310 310 311 311 311 311 311 310 309 308 308 307 307 306 307 307 308 309 310 310
309 313 310 309 310 311 308 309 308 310 311 318 313 311 310 311 312 311 310 309 309 308 309 309 309 309 310 310 309 309 309 308 308 307 306 305 305 305 305 305 306 306 307 308
310 312 313 311 308 307 308 310 310 312 311 308 311 314 308 312 312 311 309 308 308 308 309 309 309 309 309 309 308 308 308 307 306 305 304 304 303 303 303 303 303 303 303 304
310 313 315 313 310 307 309 308 309 308 311 314 317 313 307 310 309 309 308 308 308 308 308 308 308 307 307 306 306 305 305 304 303 302 302 301 301 301 301 300 300 300 300 300
310 310 313 312 311 312 311 309 308 310 313 312 311 311 310 309 310 308 308 308 307 307 307 307 306 305 305 304 303 303 302 301 301 300 300 300 299 299 299 299 298 298 298 298
310 314 311 311 311 310 311 311 309 310 311 312 312 310 312 311 310 309 309 307 306 306 305 305 304 303 302 302 301 301 300 299 298 298 298 297 297 297 297 297 297 297 297 297
310 313 311 311 310 311 312 311 310 311 311 311 310 310 311 310 309 308 307 306 305 304 304 303 302 302 301 300 299 297 297 298 298 298 297 296 296 295 295 295 295 295 295 295
312 311 312 315 310 311 314 313 311 311 311 311 311 311 308 310 308 308 308 306 305 304 302 301 300 299 298 297 297 297 297 297 297 296 296 295 295 294 294 293 293 293 293 293
310 311 312 312 312 317 312 302 309 311 310 309 309 309 309 309 308 308 308 307 305 303 301 299 297 296 295 296 297 297 297 297 295 295 294 294 293 292 292 292 292 292 292 292
309 311 309 313 315 314 309 302 308 310 312 309 310 308 307 307 306 305 306 306 304 302 299 297 295 295 296 296 297 297 296 295 294 293 292 291 291 291 291 291 291 291 291 291
306 306 314 306 316 317 310 302 303 306 314 308 308 307 305 304 308 307 305 304 302 297 296 296 296 296 296 296 296 295 294 292 291 290 290 290 291 291 290 290 290 290 290 291
308 308 311 310 313 311 305 299 300 313 314 304 307 305 303 307 308 307 304 301 298 297 296 296 296 296 295 295 294 292 290 290 290 290 290 290 290 291 291 291 291 291 291 290
308 308 310 307 312 313 298 297 305 305 297 301 305 304 303 302 301 302 301 299 297 296 296 296 295 294 293 292 290 290 289 290 290 290 289 289 289 289 289 289 290 290 290 290
308 308 309 309 310 300 298 299 300 300 299 300 304 304 304 301 300 301 299 297 296 295 295 294 294 292 290 289 289 289 289 289 289 289 289 289 289 289 289 289 289 289 289 289
299 297 305 305 302 299 297 299 299 299 300 300 302 304 303 300 300 299 297 296 295 295 294 293 291 290 289 289 288 288 288 289 289 289 289 288 288 289 289 289 289 289 288 288
300 298 300 300 295 296 297 299 300 300 300 301 301 300 300 300 300 299 297 295 295 293 292 290 289 289 288 288 289 288 288 288 288 289 289 288 288 288 289 289 288 288 288 287
295 298 302 306 298 300 300 299 299 300 301 300 300 298 297 297 297 296 295 294 292 291 289 289 289 288 288 289 288 288 288 288 288 289 289 288 288 287 287 287 288 287 287 286
Wind_Speed
3 7 14 17 10 2 10 7 7 2 2 3 6 8 8 4 6 8 7 6 7 9 9 12 15 17 19 20 24 26 26 26 28 27 28 29 30 28 27 26 24 22 22 22
6 14 8 10 9 6 9 8 5 3 2 2 2 9 6 4 2 4 8 4 4 4 3 6 10 14 19 23 24 25 27 26 27 27 28 29 29 29 29 29 27 27 26 25
10 2 14 7 7 10 2 8 6 4 4 3 2 5 2 3 6 5 5 2 3 4 5 6 5 4 8 15 22 22 22 22 24 25 25 26 27 27 26 27 27 26 26 26
3 3 11 11 9 8 6 4 7 11 6 2 2 3 3 2 5 6 6 6 8 11 12 12 13 12 10 7 7 12 15 16 18 19 23 24 25 26 25 25 26 26 25 25
5 10 10 8 7 6 3 7 7 4 4 1 2 4 4 5 4 4 7 10 12 15 17 20 21 19 17 15 13 10 7 7 10 12 14 16 18 17 20 19 21 22 24 24
5 1 3 3 5 1 13 10 7 4 2 4 4 4 5 7 6 7 9 12 14 16 20 23 24 24 24 22 21 18 14 13 9 6 4 4 6 9 12 13 16 17 19 21
3 2 2 5 10 5 3 14 3 3 4 5 2 3 2 5 7 14 17 14 12 14 18 21 22 22 21 21 21 20 19 19 17 13 10 7 3 3 6 9 12 15 17 18
10 7 10 6 5 9 13 7 6 7 5 4 2 6 2 2 4 13 12 13 14 14 17 20 21 20 19 18 17 17 16 16 14 12 11 10 8 7 7 7 9 10 11 13
8 3 2 2 2 5 7 7 4 7 2 2 5 3 4 5 7 14 15 15 14 15 17 18 18 18 18 17 17 16 15 15 13 13 12 10 10 9 9 10 10 11 12 13
7 5 2 2 3 2 5 11 4 1 6 5 5 5 6 14 17 16 16 17 14 15 17 18 18 17 17 17 16 15 14 13 13 12 10 10 10 10 11 12 12 13 14 15
7 3 3 2 7 11 5 5 2 2 2 5 5 6 3 22 23 21 21 18 16 15 17 18 19 17 16 15 14 13 11 9 8 8 9 10 11 11 12 13 14 16 17 18
3 5 5 10 3 4 2 5 10 6 7 2 1 3 2 15 26 25 21 19 17 18 19 18 17 15 13 11 9 8 6 6 7 8 9 11 11 12 13 15 16 18 19 20
8 4 4 3 1 1 6 5 7 3 3 7 6 4 3 17 21 21 23 21 20 20 18 17 15 13 10 8 7 5 5 6 7 8 10 11 13 14 15 17 19 21 22 23
9 3 10 13 10 7 9 8 8 11 5 7 10 5 10 15 17 21 21 22 20 20 19 17 14 11 8 6 5 4 5 6 7 9 11 13 15 17 19 21 24 26 28 29
4 8 6 1 2 4 6 15 15 16 22 12 19 12 20 21 21 27 24 21 21 22 19 16 13 11 8 6 4 3 3 5 9 12 14 16 19 21 23 26 28 29 30 31
0 3 3 3 0 4 2 8 18 22 20 17 10 13 10 28 19 20 25 25 23 22 19 16 13 11 8 6 3 2 4 7 11 15 18 21 24 27 29 32 34 35 36 37
7 6 4 6 4 0 5 16 16 14 16 18 18 18 10 19 23 28 29 27 25 24 21 17 14 12 8 5 2 2 7 12 16 19 22 25 28 31 33 34 35 36 38 39
6 6 1 4 6 7 5 2 9 17 9 15 7 8 23 31 40 26 29 32 29 25 22 18 14 10 6 2 3 7 12 17 21 24 27 30 32 33 34 34 35 36 38 40
2 5 4 5 8 6 4 6 8 11 17 16 14 11 13 17 23 14 29 30 29 25 21 18 14 9 5 4 8 12 17 22 26 29 30 30 31 32 33 35 37 38 40 42
3 3 6 3 6 10 1 4 7 7 12 16 18 18 22 24 12 9 30 29 27 25 20 16 12 7 6 9 14 18 23 26 27 28 28 28 30 32 34 36 38 38 39 42
4 3 6 7 4 6 4 7 9 9 4 15 25 27 26 13 6 16 33 31 27 23 19 14 10 8 11 14 18 22 23 24 25 27 28 28 29 32 34 37 39 41 41 41
8 7 5 3 4 10 11 9 8 4 4 17 20 21 26 17 18 29 34 31 26 21 16 13 10 10 14 18 19 20 22 25 27 28 28 31 33 34 35 37 39 40 41 42
5 4 6 8 6 2 22 2 11 10 15 17 25 26 30 23 26 34 34 28 22 18 15 13 12 12 14 15 18 21 24 27 30 32 33 35 36 36 36 38 39 40 39 40
4 3 3 3 4 3 18 7 12 13 18 21 23 28 29 29 31 33 29 24 20 18 15 13 11 11 13 16 19 23 26 29 32 34 36 37 38 37 37 38 38 38 37 37
2 10 5 3 0 2 11 18 21 21 20 21 23 25 28 28 33 29 26 22 19 16 14 12 10 11 13 16 18 22 26 29 32 35 36 36 37 38 39 39 38 38 36 33
8 6 6 7 14 6 10 27 23 24 24 24 26 27 24 24 26 24 21 18 15 14 12 10 10 12 14 16 19 23 27 30 32 34 35 35 37 38 39 40 41 36 34 29
Wind_Direction
153 182 190 179 179 141 154 148 157 142 83 200 236 264 265 291 284 286 293 299 282 277 263 247 235 235 236 236 235 235 236 239 242 242 244 246 250 255 260 264 267 265 263 262
157 207 175 123 123 131 145 149 134 107 64 204 210 268 282 350 12 327 307 307 291 278 263 232 230 231 235 233 231 233 235 238 240 244 246 250 254 258 262 267 270 269 269 269
184 159 145 134 146 141 152 172 169 150 140 86 282 247 201 83 80 57 34 50 79 111 110 123 144 189 227 232 228 230 233 239 243 244 246 250 251 257 258 261 267 272 273 273
155 126 154 147 171 173 177 178 137 134 165 182 319 240 155 103 80 64 66 78 93 103 104 106 103 100 98 114 187 221 230 236 238 239 243 247 255 260 264 267 273 275 277 277
146 157 155 174 186 185 138 140 122 120 101 172 200 249 141 159 130 90 87 95 99 105 103 101 99 97 96 99 104 118 152 198 220 229 236 243 246 254 260 258 265 274 278 280
95 104 149 124 69 13 141 109 77 78 105 226 179 243 188 181 165 144 126 112 108 108 107 103 100 97 93 92 94 97 102 106 106 117 149 208 241 255 264 265 265 262 261 271
99 128 108 145 97 139 171 156 128 175 194 234 30 208 317 149 133 152 140 126 116 112 110 108 107 104 101 98 95 95 95 96 93 86 83 79 51 331 306 299 291 285 280 275
168 192 180 169 164 179 182 193 173 180 190 167 88 222 222 158 130 148 140 133 126 119 114 109 106 105 104 101 100 98 96 96 93 90 81 73 62 46 20 359 344 329 318 309
165 173 67 104 128 171 174 208 86 104 30 164 194 231 234 163 168 164 154 147 139 129 122 115 111 107 104 102 96 91 88 87 81 75 69 60 48 33 19 7 354 343 329 320
181 138 11 90 115 51 208 145 145 124 159 214 201 250 208 181 181 174 166 159 147 137 127 120 115 110 107 103 98 94 88 83 76 66 54 42 27 14 2 351 342 337 331 323
144 105 114 140 218 180 145 182 95 131 193 188 184 228 219 187 180 174 168 162 154 146 136 129 122 116 110 105 102 94 88 76 63 45 31 17 6 1 354 345 338 334 330 326
187 109 147 196 10 337 325 177 179 190 199 247 4 246 315 187 173 168 164 164 159 154 145 137 131 125 123 118 106 93 72 45 28 14 4 356 352 346 342 340 338 335 334 331
183 160 114 118 279 322 226 192 198 125 61 192 173 227 54 159 162 167 166 168 164 159 152 147 142 139 132 117 99 78 48 23 13 4 359 354 350 347 346 343 340 338 334 331
160 148 199 200 207 137 199 191 200 190 202 202 232 182 173 173 172 173 174 169 167 164 161 159 153 148 137 120 99 72 40 21 9 2 357 351 346 343 340 336 332 329 326 324
191 192 192 126 106 181 206 184 184 197 219 209 238 219 186 187 186 183 171 166 167 168 167 163 157 149 140 126 106 59 23 14 6 357 350 344 338 333 329 326 323 320 318 316
163 143 118 167 89 50 212 208 198 209 216 230 234 235 196 191 177 171 176 174 174 173 171 169 167 161 154 149 137 75 20 0 348 340 335 331 328 325 323 320 318 315 314 313
157 135 140 213 142 38 283 223 203 217 218 221 227 229 173 176 190 186 182 181 179 177 176 173 170 169 167 157 135 5 342 333 327 324 323 322 321 320 319 317 315 314 312 311
142 126 94 127 142 210 244 72 210 210 218 213 234 166 175 186 195 184 185 186 184 181 179 175 172 171 170 169 322 324 323 321 319 319 319 319 318 317 316 315 313 313 311 310
205 144 135 175 204 314 198 193 168 183 237 210 211 155 167 161 162 178 195 195 188 183 177 174 172 180 210 275 302 310 312 313 314 316 318 318 317 316 315 313 311 309 307 305
125 58 197 154 206 221 336 167 164 142 261 180 175 166 155 150 177 184 187 187 182 175 172 175 186 209 252 284 300 307 310 312 315 316 318 318 316 313 311 309 306 304 303 302
156 157 187 170 212 279 217 145 144 173 256 178 180 166 161 172 203 188 180 175 174 175 178 185 202 235 270 290 301 307 310 312 314 314 315 315 314 312 310 309 308 308 304 301
167 158 174 142 190 246 157 119 189 185 171 183 179 175 163 153 145 164 169 169 174 180 186 201 222 255 281 294 304 309 311 313 314 313 313 313 313 310 308 307 309 309 308 306
203 205 172 190 203 102 179 147 200 171 168 176 181 183 181 161 159 166 167 171 175 187 200 215 237 266 285 297 309 313 313 313 313 312 311 309 309 309 307 306 306 306 308 307
235 201 222 157 177 186 189 186 182 178 173 168 169 166 173 167 167 166 168 175 186 198 214 237 260 279 292 307 314 314 316 318 317 315 312 309 307 308 309 309 307 307 308 307
158 156 168 284 299 71 207 200 185 176 169 162 166 172 174 172 171 174 180 189 200 216 233 250 267 290 303 309 314 313 314 316 318 318 316 313 310 311 310 310 310 309 309 309
188 167 190 222 187 178 211 198 190 183 182 181 176 172 174 177 178 184 192 203 218 233 244 261 284 296 302 307 311 310 313 315 317 318 317 316 313 313 313 313 311 310 312 310